User: anonymous   Login
Location: Houston
(29.7630°N, 95.3630°W)
Time: 15:25:22
(UTC-05:00)
Language:

Saudisat 1A - Orbit

View from above orbital plane
View from above orbital plane
View from above satellite
View from above satellite

Ground track
Ground track

The orbit data is extracted from the following two-line orbital elements,

1 26546U 00057B   15214.51211960  .00000629  00000-0  81341-4 0  9991
2 26546 064.5562 317.2120 0035197 308.4572 051.3380 14.89639232804631
Epoch (UTC): 02 August 2015 12:17:27
Eccentricity: 0.0035197
inclination: 64.5562°
perigee height: 574 km
apogee height: 623 km
right ascension of ascending node: 317.2120°
argument of perigee: 308.4572°
revolutions per day: 14.89639232
mean anomaly at epoch: 51.3380°
orbit number at epoch: 80463

The dashed part of the orbit path shows where the satellite is in the earth's shadow,  

DLR